Regional Weather Roundup
Issued by NWS

Home | Current Version | Previous Version | Text Only | Print | Product List | Glossary On
Versions: 1 2 3 4 5 6 7 8 9 10 11 12 13 14 15 16 17 18 19 20 21 22 23 24 25 26 27 28 29 30 31 32 33 34 35 36 37 38 39 40 41 42 43 44 45 46 47 48 49 50
000
ASUS44 KFWD 221401
RWRTX
NORTH TEXAS HOURLY WEATHER ROUNDUP
NATIONAL WEATHER SERVICE FORT WORTH TX
800 AM CST WED NOV 22 2017

NOTE: "FAIR" INDICATES FEW OR NO CLOUDS BELOW 12,000 FEET WITH NO
SIGNIFICANT WEATHER AND/OR OBSTRUCTIONS TO VISIBILITY.

TXZ118-119-221500-
DALLAS/FORT WORTH METROPLEX

CITY           SKY/WX    TMP DP  RH WIND       PRES   REMARKS
DFW AIRPORT    MOCLDY    42  19  39 N15       30.37R WCI  34
DALLAS LOVE    CLOUDY    41  18  39 N13       30.39R WCI  34
FTW MEACHAM    CLOUDY    40  17  39 NW12      30.40R WCI  33
DAL-EXECUTIVE  MOCLDY    42  20  41 N14       30.37R WCI  35
FTW-ALLIANCE   CLOUDY    38  18  44 N10       30.39R WCI  31
FTW-NAS-JRB    MOCLDY    42  16  34 N16       30.41R WCI  34
FTW-SPINKS     CLEAR     39  16  38 NW15      30.40R WCI  31
ARLINGTON      CLOUDY    40  18  41 NW15      30.39R WCI  32
GRAND PRAIRIE  CLEAR     41  18  38 NW7       30.39S WCI  36
ADDISON        CLEAR     39  16  38 N13G21    30.39  WCI  32
MESQUITE       CLEAR     41  19  42 NW10G18   30.37R WCI  35
LANCASTER      CLEAR     42  20  42 N13       30.38R WCI  35
$$

TXZ091>094-102>105-117-120-121-131>134-221500-
NORTH CENTRAL TEXAS

CITY           SKY/WX    TMP DP  RH WIND       PRES   REMARKS
SHRMAN/DENISON CLOUDY    35  22  58 N14G21    30.40R WCI  26
GAINESVILLE    CLOUDY    34  17  51 N13       30.42R WCI  25
BOWIE          PTCLDY    32  18  55 NW7       30.41S WCI  26
BRIDGEPORT     MOCLDY    37  20  51 N10G16    30.44R WCI  29
DENTON         CLOUDY    36  18  48 N13       30.40R WCI  27
MCKINNEY       PTCLDY    38  20  48 N12       30.38R WCI  30
BONHAM         CLOUDY    34  19  55 N9G16     30.39R WCI  26
ROCKWALL       CLEAR     39  21  48 MISG      30.37R
TERRELL        CLEAR     41  18  39 N8        30.36R WCI  36
WAXAHACHIE     MOCLDY    41  24  49 NW8       30.37R WCI  36
CLEBURNE       CLOUDY    39  18  41 N13       30.40R WCI  32
GRANBURY       PTCLDY    40  21  45 NW9       30.42R WCI  34
$$

TXZ083>090-098>101-113>116-127>130-139>142-154-155-221500-
WESTERN NORTH TEXAS

CITY           SKY/WX    TMP DP  RH WIND       PRES   REMARKS
WICHITA FALLS  CLOUDY    32  16  51 N10       30.44R WCI  24
WF-KICKAPOO    PTCLDY    35  15  43 N8        30.46S WCI  28
VERNON         PTCLDY    32  15  50 NW3       30.47R
ABILENE        CLEAR     34  25  69 N6        30.43F WCI  29
ABILENE-DYESS  CLEAR     35  25  67 N6        30.43F WCI  30
GRAHAM           N/A     32  18  55 N6        30.42R WCI  27
BRECKENRIDGE   CLOUDY    36  19  50 CALM      30.43R
CISCO          CLOUDY    34  21  60 NW8G15    30.41S WCI  27
EASTLAND       CLOUDY    34  19  53 N7        30.42R WCI  28
RANGER         CLOUDY    35  19  53 N10       30.41R WCI  27
MINERAL WELLS  PTCLDY    36  16  44 N10       30.40R WCI  28
STEPHENVILLE   CLOUDY    38  16  41 N14       30.42R WCI  30
COMANCHE       PTCLDY    37  21  52 N8        30.41R WCI  31
BROWNWOOD      CLEAR     37  19  48 N9        30.42R WCI  31
COLEMAN        CLEAR     38  22  51 N10       30.41S WCI  31
$$

TXZ143>147-156>162-174-175-221500-
CENTRAL TEXAS

CITY           SKY/WX    TMP DP  RH WIND       PRES   REMARKS
WACO           CLEAR     44  22  41 N10       30.36R WCI  39
WACO-TSTC      CLEAR     45  27  49 N10       30.37R WCI  39
WACO-MCGREGOR  CLEAR     43  25  49 N9        30.37R WCI  38
HILLSBORO      CLEAR     42  23  46 NW12      30.36R WCI  35
CORSICANA      SUNNY     44  21  40 N9G20     30.36R WCI  39
MEXIA          SUNNY     44  24  44 N8        30.33R WCI  39
HEARNE         SUNNY     48  33  56 NW7       30.33R
CAMERON        SUNNY     47  32  55 N10       30.34R
TEMPLE         CLEAR     44  26  49 N13       30.35R WCI  38
KILLEEN        CLEAR     43  28  54 NW12      30.35R WCI  37
KILLEEN-SKYLRK CLEAR     44  28  53 N10       30.36R WCI  39
FORT HOOD      CLEAR     44  27  52 N10       30.33R WCI  38
GATESVILLE     CLEAR     43  23  45 N9        30.39R WCI  37
HAMILTON       CLEAR     41  24  52 N10       30.39R WCI  34
LAMPASAS       CLEAR     42  29  58 N10       30.36R WCI  36
$$

TXZ095>097-106>112-122>126-135>138-148>153-164>167-221500-
EAST TEXAS

CITY           SKY/WX    TMP DP  RH WIND       PRES   REMARKS
PARIS          SUNNY     37  23  56 N12       30.35R WCI  29
SULPHUR SPRNGS SUNNY     41  26  54 N8        30.37R WCI  35
MOUNT PLEASANT SUNNY     42  27  54 N7        30.36R WCI  38
GILMER         SUNNY     43  30  61 NW9       30.33R WCI  37
MINEOLA        SUNNY     43  23  45 N6        30.35R WCI  39
TYLER          SUNNY     43  25  49 N12       30.32R WCI  37
LONGVIEW       SUNNY     47  39  74 N9        30.31R
MARSHALL       SUNNY     45  36  71 N8        30.33R
ATHENS         SUNNY     41  21  45 N12       30.32S WCI  34
PALESTINE      SUNNY     45  34  64 N8        30.33R
JACKSONVILLE   SUNNY     46  37  70 N7        30.32R
HENDERSON      SUNNY     46  38  71 N7        30.32R
CENTER         SUNNY     47  40  78 N7        30.29R
NACOGDOCHES    SUNNY     50  43  77 N7        30.29R
LUFKIN         SUNNY     51  44  77 N8        30.27R
$$

SUPPLEMENTAL OBSERVATIONS (NWS FORT WORTH AREA)

CITY           SKY/WX    TMP DP  RH WIND       PRES   REMARKS
$$

SUPPLEMENTAL OBSERVATIONS (NWS NORMAN AREA)

CITY           SKY/WX    TMP DP  RH WIND       PRES   REMARKS
GOODLETT         N/A     30  21  67 W6        30.45R WCI  24
ODELL            N/A     27  21  78 NW6       30.47R WCI  20
CROWELL          N/A     32  20  61 NW7       30.47R WCI  26
KNOX CITY        N/A     31  23  70 NW6       30.46R WCI  26
SEYMOUR          N/A     32  20  60 NW7       30.45R WCI  26
$$

SUPPLEMENTAL OBSERVATIONS (NWS SAN ANGELO AREA)

CITY           SKY/WX    TMP DP  RH WIND       PRES   REMARKS
WEINERT          N/A     33  20  58 N8        30.46R WCI  26
HASKELL          N/A     33  22  63 NW6       30.44R WCI  28
THROCKMORTON     N/A     32  21  65 NW2       30.44R
STAMFORD         N/A     33  24  68 NW6       30.45R WCI  27
CLYDE            N/A     30  24  75 NW3       30.42F
$$

SUPPLEMENTAL OBSERVATIONS (NWS SHREVEPORT AREA)

CITY           SKY/WX    TMP DP  RH WIND       PRES   REMARKS
$$

SUPPLEMENTAL OBSERVATIONS ARE A COLLECTION OF AUTOMATED INSTRUMENTS
THAT ARE MAINTAINED BY A VARIETY OF FEDERAL AND STATE AGENCIES.
CERTAIN ELEMENTS...SUCH AS HUMIDITY VALUES AND SUSTAINED WIND
SPEEDS...MAY BE APPROXIMATED.





USA.gov is the U.S. government's official web portal to all federal, state and local government web resources and services.